Artesia, NM

2:50 AM MDT on March 27, 2017 (GMT -0600)
Artesia Municipal

Weather History for KATS - July, 2013

Change the Weather History Date:

Sunday, July 21, 2013

  Actual Average Record
Temperature  
Mean Temperature 76 °F -  
Max Temperature 87 °F 91 °F 105 °F (1961)
Min Temperature 66 °F 63 °F 58 °F (1973)
Cooling Degree Days 12    
Growing Degree Days 26 (Base 50)    
Moisture  
Dew Point 62 °F    
Average Humidity 63    
Maximum Humidity 94    
Minimum Humidity 35    
Precipitation  
Precipitation 0.00 in - - ()
Sea Level Pressure  
Sea Level Pressure 29.99 in    
Wind  
Wind Speed 11 mph (SSE)    
Max Wind Speed 17 mph    
Max Gust Speed 23 mph    
Visibility 10 miles    
Events      
Averages and records for this station are not official NWS values.
T = Trace of Precipitation, MM = Missing Value Source: NWS Daily Summary

Daily Weather History Graph

Daily Weather History Graph

Search for Another Location

Airport or City:

Trip Planner

Search our weather history database for the weather conditions in past years. The results will help you decide how hot, cold, wet, or windy it might be!

Date:

Astronomy

Jul. 21, 2013 Rise Set
Actual Time 6:04 AM MDT 8:03 PM MDT
Civil Twilight 5:36 AM MDT 8:31 PM MDT
Nautical Twilight 5:03 AM MDT 9:04 PM MDT
Astronomical Twilight 4:27 AM MDT 9:40 PM MDT
Moon 7:06 PM MDT (7/21) 4:51 AM MDT (7/21)
Length of Visible Light 14h 54m
Length of Day
13h 59m
Waxing Gibbous, 98% of the Moon is Illuminated
Jul 21
Waxing Gibbous
Jul 22
Full
Jul 29
Last Quarter
Aug 6
New
Aug 14
First Quarter

Hourly Weather History & Observations

Time (MDT) Temp. Heat Index Dew Point Humidity Pressure Visibility Wind Dir Wind Speed Gust Speed Precip Events Conditions
12:15 AM 71.6 °F - 64.4 °F 78% 29.99 in 10.0 mi SSE 9.2 mph - N/A   Clear
12:35 AM 71.6 °F - 64.4 °F 78% 29.99 in 10.0 mi SSE 11.5 mph - N/A   Clear
12:55 AM 71.6 °F - 64.4 °F 78% 29.99 in 10.0 mi SSE 10.4 mph - N/A   Scattered Clouds
1:15 AM 71.6 °F - 64.4 °F 78% 29.99 in 10.0 mi SSE 10.4 mph - N/A   Mostly Cloudy
1:35 AM 71.6 °F - 64.4 °F 78% 29.99 in 10.0 mi SSE 11.5 mph - N/A   Partly Cloudy
1:55 AM 71.6 °F - 64.4 °F 78% 29.99 in 10.0 mi SSE 12.7 mph - N/A   Clear
2:15 AM 71.6 °F - 64.4 °F 78% 29.98 in 10.0 mi SSE 12.7 mph - N/A   Clear
2:35 AM 69.8 °F - 62.6 °F 78% 29.98 in 10.0 mi SSE 12.7 mph - N/A   Clear
2:55 AM 69.8 °F - 62.6 °F 78% 29.98 in 10.0 mi SSE 13.8 mph - N/A   Clear
3:15 AM 68.0 °F - 62.6 °F 83% 29.98 in 10.0 mi SSE 10.4 mph - N/A   Clear
3:35 AM 68.0 °F - 62.6 °F 83% 29.98 in 10.0 mi SSE 11.5 mph - N/A   Clear
3:55 AM 68.0 °F - 62.6 °F 83% 29.99 in 10.0 mi SSE 10.4 mph - N/A   Clear
4:15 AM 68.0 °F - 62.6 °F 83% 29.99 in 10.0 mi SSE 9.2 mph - N/A   Clear
4:35 AM 68.0 °F - 62.6 °F 83% 30.00 in 10.0 mi SSE 10.4 mph - N/A   Clear
4:55 AM 66.2 °F - 62.6 °F 88% 30.00 in 10.0 mi SSE 9.2 mph - N/A   Clear
5:15 AM 66.2 °F - 64.4 °F 94% 30.00 in 10.0 mi South 9.2 mph - N/A   Clear
5:35 AM 66.2 °F - 64.4 °F 94% 30.00 in 10.0 mi SSE 9.2 mph - N/A   Clear
5:55 AM 66.2 °F - 64.4 °F 94% 30.00 in 10.0 mi SSE 6.9 mph - N/A   Clear
6:15 AM 66.2 °F - 64.4 °F 94% 30.00 in 10.0 mi SSE 5.8 mph - N/A   Clear
6:35 AM 66.2 °F - 64.4 °F 94% 30.00 in 10.0 mi SSE 6.9 mph - N/A   Clear
6:55 AM 66.2 °F - 64.4 °F 94% 30.01 in 10.0 mi SSE 10.4 mph - N/A   Clear
7:15 AM 68.0 °F - 64.4 °F 88% 30.02 in 10.0 mi SSE 8.1 mph - N/A   Clear
7:35 AM 68.0 °F - 64.4 °F 88% 30.02 in 10.0 mi SSE 12.7 mph - N/A   Clear
7:55 AM 69.8 °F - 64.4 °F 83% 30.02 in 10.0 mi SSE 13.8 mph - N/A   Clear
8:15 AM 71.6 °F - 64.4 °F 78% 30.03 in 10.0 mi SSE 17.3 mph - N/A   Clear
8:35 AM 71.6 °F - 64.4 °F 78% 30.03 in 10.0 mi SSE 13.8 mph - N/A   Clear
8:55 AM 73.4 °F - 64.4 °F 73% 30.04 in 10.0 mi SSE 11.5 mph - N/A   Clear
9:15 AM 73.4 °F - 64.4 °F 73% 30.04 in 10.0 mi SSE 12.7 mph - N/A   Clear
9:35 AM 75.2 °F - 64.4 °F 69% 30.03 in 10.0 mi South 12.7 mph - N/A   Clear
9:55 AM 75.2 °F - 64.4 °F 69% 30.03 in 10.0 mi South 11.5 mph - N/A   Clear
10:15 AM 77.0 °F - 64.4 °F 65% 30.04 in 10.0 mi SSE 13.8 mph - N/A   Clear
10:35 AM 77.0 °F - 62.6 °F 61% 30.04 in 10.0 mi SSE 11.5 mph - N/A   Clear
10:55 AM 77.0 °F - 62.6 °F 61% 30.04 in 10.0 mi SSE 12.7 mph - N/A   Clear
11:15 AM 80.6 °F 81.8 °F 62.6 °F 54% 30.03 in 10.0 mi SSE 10.4 mph - N/A   Clear
12:15 PM 82.4 °F 83.4 °F 62.6 °F 51% 30.02 in 10.0 mi SSE 11.5 mph - N/A   Clear
12:35 PM 82.4 °F 82.9 °F 60.8 °F 48% 30.01 in 10.0 mi SE 9.2 mph - N/A   Clear
12:55 PM 82.4 °F 82.9 °F 60.8 °F 48% 30.00 in 10.0 mi SSE 10.4 mph 16.1 mph N/A   Clear
1:15 PM 84.2 °F 83.5 °F 57.2 °F 40% 29.99 in 10.0 mi SSE 11.5 mph 18.4 mph N/A   Clear
1:35 PM 84.2 °F 83.5 °F 57.2 °F 40% 29.98 in 10.0 mi South 9.2 mph 16.1 mph N/A   Clear
1:55 PM 84.2 °F 83.8 °F 59.0 °F 42% 29.98 in 10.0 mi SSE 9.2 mph - N/A   Clear
2:15 PM 86.0 °F 84.9 °F 57.2 °F 37% 29.97 in 10.0 mi SE 10.4 mph - N/A   Clear
2:35 PM 86.0 °F 84.9 °F 57.2 °F 37% 29.96 in 10.0 mi SSE 12.7 mph - N/A   Clear
2:55 PM 86.0 °F 84.9 °F 57.2 °F 37% 29.96 in 10.0 mi South 9.2 mph - N/A   Clear
3:15 PM 86.0 °F 84.9 °F 57.2 °F 37% 29.95 in 10.0 mi SE 10.4 mph - N/A   Clear
3:35 PM 86.0 °F 84.9 °F 57.2 °F 37% 29.95 in 10.0 mi SSE 13.8 mph - N/A   Clear
3:55 PM 86.0 °F 85.4 °F 59.0 °F 40% 29.95 in 10.0 mi SE 12.7 mph - N/A   Clear
4:15 PM 86.0 °F 85.4 °F 59.0 °F 40% 29.94 in 10.0 mi SSE 10.4 mph 19.6 mph N/A   Clear
4:35 PM 86.0 °F 84.9 °F 57.2 °F 37% 29.94 in 10.0 mi SSE 13.8 mph 20.7 mph N/A   Clear
4:55 PM 86.0 °F 84.9 °F 57.2 °F 37% 29.93 in 10.0 mi SSE 10.4 mph 18.4 mph N/A   Clear
5:15 PM 87.8 °F 86.5 °F 57.2 °F 35% 29.93 in 10.0 mi SSE 12.7 mph - N/A   Clear
5:35 PM 86.0 °F 84.9 °F 57.2 °F 37% 29.93 in 10.0 mi SSE 11.5 mph - N/A   Clear
5:55 PM 86.0 °F 84.9 °F 57.2 °F 37% 29.92 in 10.0 mi SSE 11.5 mph 21.9 mph N/A   Clear
6:15 PM 86.0 °F 84.9 °F 57.2 °F 37% 29.92 in 10.0 mi SSE 10.4 mph 19.6 mph N/A   Clear
6:35 PM 86.0 °F 84.9 °F 57.2 °F 37% 29.92 in 10.0 mi SSE 16.1 mph - N/A   Clear
6:55 PM 86.0 °F 85.4 °F 59.0 °F 40% 29.92 in 10.0 mi South 16.1 mph - N/A   Clear
7:15 PM 86.0 °F 85.4 °F 59.0 °F 40% 29.92 in 10.0 mi SSE 16.1 mph 23.0 mph N/A   Clear
7:35 PM 84.2 °F 83.8 °F 59.0 °F 42% 29.93 in 10.0 mi SSE 13.8 mph - N/A   Clear
7:55 PM 84.2 °F 83.8 °F 59.0 °F 42% 29.94 in 10.0 mi South 9.2 mph - N/A   Clear
8:15 PM 82.4 °F 82.5 °F 59.0 °F 45% 29.95 in 10.0 mi South 9.2 mph - N/A   Clear
8:35 PM 80.6 °F 81.1 °F 59.0 °F 48% 29.96 in 10.0 mi South 6.9 mph - N/A   Clear
8:55 PM 78.8 °F - 62.6 °F 57% 29.97 in 10.0 mi SSW 6.9 mph - N/A   Clear
9:15 PM 77.0 °F - 62.6 °F 61% 29.97 in 10.0 mi SSW 6.9 mph - N/A   Clear
9:35 PM 77.0 °F - 62.6 °F 61% 29.98 in 10.0 mi South 6.9 mph - N/A   Clear
9:55 PM 77.0 °F - 62.6 °F 61% 29.99 in 10.0 mi South 6.9 mph - N/A   Clear
10:15 PM 77.0 °F - 62.6 °F 61% 30.00 in 10.0 mi South 4.6 mph - N/A   Clear
10:35 PM 77.0 °F - 62.6 °F 61% 30.01 in 10.0 mi Calm Calm - N/A   Clear
10:55 PM 75.2 °F - 62.6 °F 65% 30.01 in 10.0 mi SE 5.8 mph - N/A   Clear
11:15 PM 75.2 °F - 64.4 °F 69% 30.01 in 10.0 mi SSE 4.6 mph - N/A   Clear
11:35 PM 75.2 °F - 64.4 °F 69% 30.01 in 10.0 mi SSE 5.8 mph - N/A   Clear
11:55 PM 75.2 °F - 62.6 °F 65% 30.01 in 10.0 mi South 4.6 mph - N/A   Clear